sat.trackr.live / text

‹ back to catalog

INNOCUBE (TUBSAT-31)

NORAD 62616 · 2025-009H

PAYLOAD ACTIVE UNKNOWN

§ Identity

Operator
Country
GER
Launch date
2025-01-14
Launch site
AFWTR
Launch vehicle
Mass (kg)
RCS (m²)

External: N2YO · Heavens-Above · Gunter

§ Orbital elements

Epoch: 2026-05-25T03:23:26.689632Z

Period
94.36 min
Inclination
97.3904°
Eccentricity
0.0007129
Mean motion
15.26126922 rev/d
Perigee alt
482.5 km
Apogee alt
492.3 km
Semi-major
6,865.5 km
B*
2.7639e-4
RAAN
225.3804°
Arg perigee
63.9501°
Mean anomaly
296.2470°
Rev number
7,530

§ Raw data

INNOCUBE (TUBSAT-31)1 62616U 25009H   26145.14128113  .00007067  00000+0  27639-3 0  99952 62616  97.3904 225.3804 0007129  63.9501 296.2470 15.26126922 75303

JSON: /api/v1/satellites/62616 · /tle

For live sub-satellite position, see the globe view (requires WebGL).

§ Visibility from observer

Set your observer location to see the next 7 days of passes ≥ 10°. The values pass through the URL so the page stays shareable.

No JS? Fill the form by hand. The geolocation button needs JavaScript.

§ Radio — SatNOGS DB

ModeDescriptionDownlinkUplink
CW Mode U - CW 437.020 MHz
MSK AX.100 Mode 5 Mode U - GMSK9k6 - TLM 435.950 MHz
SSTV Mode U SSTV (Scottie DX) (inactive) 437.020 MHz

3 transmitters · refreshed weekly from db.satnogs.org